Location: Carson
(33.8314°N, 118.2820°W)
Time: 13:44:29
(UTC+00:00)

SKYMED 2 - Pass Details

Date: 23 November 2020
Orbit: 621 x 623 km, 97.9° (Epoch: 22 January)

Event Time Altitude Azimuth Distance (km) Brightness Sun altitude
Rises 13:40:04 0° 184° (S) 2,884 7.2 -11.2°
Reaches altitude 10° 13:42:21 10° 192° (SSW) 1,983 6.2 -10.7°
Maximum altitude 13:46:24 39° 261° (W) 931 4.0 -9.9°
Drops below altitude 10° 13:50:29 10° 331° (NNW) 1,996 5.7 -9.1°
Sets 13:52:48 0° 339° (NNW) 2,907 6.6 -8.7°
